Home > Weather > Sosnowiec > Past weeks

Flag for Poland Weather for the Past 2 Weeks in Sosnowiec, Poland

Now
54 °F

Passing clouds.


Feels Like: 51 °F
Forecast: 36 / 59 °F
Wind: 8 mph from East

Location: Katowice Airport

Current Time: Apr 29, 2016 at 2:29:42 PM

Latest Report: Apr 29, 2016 at 2:00 PM


Visibility: N/A

Pressure: 30.12 "Hg

Humidity: 38%

Dew Point: 28 °F

Location of SosnowiecLocation

Historic Weather in Sosnowiec — Graph

°F

Sosnowiec Temperature Yesterday

Maximum temperature yesterday: 52 °F (at 1:00 PM)
Minimum temperature yesterday: 34 °F (at 4:00 AM)
Average temperature yesterday: 42 °F

High & Low Weather Summary for the Past Weeks

 TemperatureHumidityPressure
High68 °F (Apr 17, 1:30 PM)100% (Apr 14, 1:30 PM)30.30 "Hg (Apr 14, 1:30 PM)
Low23 °F (Apr 26, 6:00 AM)24% (Apr 23, 1:30 PM)29.59 "Hg (Apr 24, 12:30 AM)
Average45 °F72%29.89 "Hg
* Reported Apr 14 1:00 PM — Apr 29 1:30 PM, Sosnowiec, Weather by CustomWeather, © 2016

Note: Actual official high and low records may vary slightly from our data, if they occured in-between our weather recording intervals... More about our weather records

Advertising

Sosnowiec Weather History for the Previous 24 Hours

Scroll right to see more
 ConditionsComfort  
Time TempWeatherWind HumidityBarometerVisibility
1:30 PM
Fri, Apr 29
55 °FSunny.2 mph36%30.15 "Hg10 mi
1:00 PM52 °FPassing clouds.6 mph44%30.15 "HgN/A
12:30 PM52 °FPassing clouds.6 mph44%30.15 "HgN/A
12:00 PM50 °FScattered clouds.5 mph50%30.15 "HgN/A
11:30 AM50 °FScattered clouds.5 mph50%30.15 "HgN/A
11:00 AM50 °FPassing clouds.5 mph54%30.15 "HgN/A
10:30 AM48 °FPassing clouds.3 mph58%30.15 "HgN/A
10:00 AM48 °FSunny.2 mph62%30.15 "Hg10 mi
9:30 AM46 °FPassing clouds.5 mph71%30.15 "HgN/A
9:00 AM46 °FPassing clouds.5 mph71%30.15 "HgN/A
8:30 AM45 °FPassing clouds.5 mph71%30.15 "HgN/A
8:00 AM43 °FPassing clouds.6 mph81%30.15 "HgN/A
7:00 AM37 °FFog.3 mph93%30.12 "Hg2 mi
6:30 AM34 °FFog.3 mph100%30.12 "Hg1 mi
6:00 AM30 °FIce fog.3 mph100%30.12 "Hg1 mi
5:30 AM32 °FIce fog.2 mph100%30.12 "Hg1 mi
4:30 AM32 °FIce fog.5 mph93%30.09 "Hg2 mi
4:00 AM30 °FIce fog.2 mph100%30.09 "Hg1 mi
3:00 AM34 °FFog.2 mph93%30.09 "Hg1 mi
2:30 AM32 °FChilly.3 mph100%30.09 "Hg2 mi
2:00 AM34 °FFog.1 mph93%30.09 "Hg2 mi
1:30 AM37 °FClear.6 mph87%30.09 "Hg4 mi
1:00 AM36 °FClear.8 mph93%30.09 "Hg4 mi
12:30 AM37 °FClear.8 mph93%30.07 "Hg5 mi
12:00 AM37 °FClear.9 mph93%30.07 "Hg10 mi
11:30 PM
Thu, Apr 28
39 °FClear.6 mph87%30.07 "Hg10 mi
11:00 PM37 °FClear.5 mph93%30.07 "Hg10 mi
10:30 PM39 °FClear.5 mph87%30.07 "Hg10 mi
10:00 PM39 °FClear.2 mph87%30.07 "Hg10 mi
9:30 PM39 °FClear.8 mph87%30.07 "Hg10 mi
9:00 PM41 °FClear.15 mph87%30.07 "Hg10 mi
8:30 PM41 °FPassing clouds.7 mph87%30.04 "HgN/A
8:00 PM41 °FSprinkles. Scattered clouds.9 mph81%30.04 "HgN/A
7:30 PM41 °FSprinkles. Broken clouds.7 mph87%30.04 "HgN/A
7:00 PM41 °FSprinkles. Broken clouds.20 mph81%30.04 "HgN/A
6:30 PM41 °FSprinkles. Broken clouds.15 mph81%30.01 "HgN/A
6:00 PM45 °FPartly sunny.13 mph66%30.01 "HgN/A
5:30 PM46 °FSprinkles. Partly sunny.22 mph53%30.01 "HgN/A
5:00 PM50 °FPassing clouds.14 mph37%29.98 "HgN/A
4:30 PM52 °FSunny.14 mph38%29.98 "Hg10 mi
4:00 PM52 °FPassing clouds.15 mph35%29.98 "HgN/A
3:00 PM52 °FScattered clouds.17 mph44%29.98 "HgN/A
2:30 PM50 °FScattered clouds.16 mph43%29.98 "HgN/A
2:00 PM52 °FScattered clouds.14 mph47%30.01 "HgN/A
Weather by CustomWeather, © 2016

See weather overviewHow to use our weather pages